DELTA 1 DEB, 42087

Orbit data source: Space-Track

DELTA 1 DEB, 42087 is space debris in SSO originally from a launch on Sun, 15 Dec 1968 UTC launched from the Air Force Western Test Range (AFWTR). Debris objects in space refer to the collection of defunct objects orbiting the Earth. Examples of debris include non-operational satellites, rocket bodies, and fragments generated from explosions, collisions, or faulty payload assembly.

Loading next visibility...
Identifier
42087, 1968-114P
Orbit
SSO
Country
Flag of USUS
Related business
Manufacturer
Aerojet
Mission
Spacecraft
Bus & Motor
Unknown
Mass
Unknown
Launch date (UTC)
1968-12-15 (57 years ago)
Launch vehicle
Unknown
Launch site
Air Force Western Test Range (AFWTR)
Object type
Payload
Rocket body
Debris
Shape & HBR
Unknown shape, 0.1 m
Radar Cross Section
Small (<0.1 m²)

Expand to show TLE details & history
Last TLE update: 4 days ago

TLE from 4 days ago
0 DELTA 1 DEB
1 42087U 68114P   26033.08977178  .00000010  00000-0  38732-3 0  9999
2 42087 101.4336 352.5366 0196129 234.7429 123.5143 12.35467679549478
Epoch: 2026-02-02T02:09Z
TLE epoch observation values (Epoch: 2026-02-02T02:09:16.281Z)
Latitude
Longitude
-172.0713°
Altitude
1,616.126 km
Speed
7.023 km/s
True Right ascension
23h 30m 08s
True Declination
0° 00' 00"
Sunlit
Object was in daylight at epoch
Visualization orbit readout
Latitude
Unknown
Longitude
Unknown
Altitude
Unknown
Speed
Unknown
Apparent Right ascension
Unknown
Apparent Declination
Unknown
Sunlit
N/A
Visualization observer readout
Local Sidereal Time
13:07:30
Azimuth
Unknown
Elevation
Unknown
Doppler factor
Unknown
Orbital elements
Apogee altitude
1,678.394 km
Perigee altitude
1,368.449 km
Semi-major axis
7,901.558 km
Eccentricity
0.01961
Inclination
101.4336°
RAAN
352.5366°
Arg. of periapsis
234.7429°
True anomaly
125.36277°
Mean anomaly
123.5143°
Eccentric anomaly
124.44105°
Mean motion
3.09011 °/min
Orbital period
116.5 mins
BSTAR
0.00038732
Loading maneuver chart data...
Computing Atmospheric mass density...
Loading historical data...
Loading historical data...
Loading historical data...
Loading historical data...
Loading historical data...
Loading historical data...
Loading historical data...

Documentation

Showing up to 5 results
|